La Porte, IN

8:00 AM CDT on April 22, 2018 (GMT -0500)
La Porte Municipal

Weather History for KPPO - December, 2012

Change the Weather History Date:

Sunday, December 30, 2012

  Actual Average (KSBN) Record (KSBN)
Temperature  
Mean Temperature 20 °F -  
Max Temperature 28 °F 32 °F 60 °F (1965)
Min Temperature 12 °F 19 °F -13 °F (1909)
Degree Days  
Heating Degree Days 45    
Moisture  
Dew Point 17 °F    
Average Humidity 81    
Maximum Humidity 93    
Minimum Humidity 71    
Precipitation  
Precipitation 0.00 in - - ()
Sea Level Pressure  
Sea Level Pressure 30.26 in    
Wind  
Wind Speed 9 mph (SW)    
Max Wind Speed 14 mph    
Max Gust Speed 16 mph    
Visibility 8 miles    
Events      
Averages and records for this station are not official NWS values.
T = Trace of Precipitation, MM = Missing Value Source: NWS Daily Summary

Daily Weather History Graph

Daily Weather History Graph

Search for Another Location

Airport or City:

Astronomy

Dec. 30, 2012 Rise Set
Actual Time 7:13 AM CST 4:26 PM CST
Civil Twilight 6:42 AM CST 4:57 PM CST
Nautical Twilight 6:07 AM CST 5:32 PM CST
Astronomical Twilight 5:33 AM CST 6:06 PM CST
Moon 6:58 PM CST (12/30) 8:20 AM CST (12/30)
Length of Visible Light 10h 15m
Length of Day
9h 12m
Waning Gibbous, 95% of the Moon is Illuminated
Dec 30
Waning Gibbous
Jan 4
Last Quarter
Jan 11
New
Jan 18
First Quarter
Jan 26
Full

Hourly Weather History & Observations

Time (CST) Temp. Windchill Dew Point Humidity Pressure Visibility Wind Dir Wind Speed Gust Speed Precip Events Conditions
12:15 AM 21.4 °F 8.5 °F 17.4 °F 85% 30.20 in 10.0 mi West 13.8 mph - N/A   Overcast
12:55 AM 21.2 °F 10.9 °F 17.1 °F 84% 30.21 in 10.0 mi WSW 9.2 mph - N/A   Overcast
1:15 AM 21.2 °F 10.9 °F 16.7 °F 83% 30.21 in 10.0 mi WSW 9.2 mph - N/A   Overcast
1:35 AM 21.6 °F 10.6 °F 17.2 °F 83% 30.21 in 10.0 mi WSW 10.4 mph - N/A   Overcast
1:55 AM 20.8 °F 9.0 °F 16.9 °F 85% 30.23 in 10.0 mi WSW 11.5 mph - N/A   Overcast
2:15 AM 20.5 °F 10.8 °F 16.7 °F 85% 30.23 in 10.0 mi WSW 8.1 mph - N/A   Overcast
2:35 AM 19.9 °F 8.6 °F 16.2 °F 85% 30.24 in 10.0 mi West 10.4 mph - N/A   Overcast
2:55 AM 19.4 °F 8.6 °F 15.6 °F 85% 30.25 in 10.0 mi WSW 9.2 mph - N/A   Overcast
3:15 AM 18.7 °F 8.6 °F 14.9 °F 85% 30.26 in 10.0 mi WSW 8.1 mph - N/A   Overcast
3:35 AM 18.5 °F 8.4 °F 14.4 °F 84% 30.26 in 10.0 mi WSW 8.1 mph - N/A   Overcast
3:55 AM 17.4 °F 7.1 °F 13.1 °F 83% 30.28 in 10.0 mi WSW 8.1 mph - N/A   Overcast
4:15 AM 15.8 °F 7.2 °F 12.2 °F 86% 30.28 in 10.0 mi SW 5.8 mph - N/A   Overcast
4:35 AM 13.6 °F 6.0 °F 10.8 °F 88% 30.27 in 7.0 mi SW 4.6 mph - N/A   Overcast
4:55 AM 12.7 °F 5.0 °F 10.4 °F 90% 30.28 in 7.0 mi SW 4.6 mph - N/A   Overcast
5:15 AM 12.7 °F 5.0 °F 10.8 °F 92% 30.29 in 7.0 mi SW 4.6 mph - N/A   Overcast
5:35 AM 12.2 °F 2.9 °F 10.4 °F 92% 30.30 in 5.0 mi SW 5.8 mph - N/A   Overcast
5:55 AM 13.1 °F 0.9 °F 11.3 °F 93% 30.30 in 7.0 mi SW 9.2 mph - N/A   Overcast
6:15 AM 12.9 °F 2.6 °F 10.9 °F 92% 30.30 in 7.0 mi SW 6.9 mph - N/A   Overcast
6:35 AM 12.9 °F 1.6 °F 10.6 °F 90% 30.31 in 7.0 mi SW 8.1 mph - N/A   Overcast
7:35 AM 12.2 °F 2.9 °F 9.5 °F 89% 30.32 in 5.0 mi SW 5.8 mph - N/A   Mostly Cloudy
7:55 AM 12.6 °F 2.2 °F 10.2 °F 90% 30.31 in 4.0 mi SW 6.9 mph - N/A   Scattered Clouds
8:15 AM 13.1 °F 4.0 °F 10.4 °F 89% 30.32 in 4.0 mi SW 5.8 mph - N/A   Scattered Clouds
8:35 AM 14.0 °F 2.9 °F 11.3 °F 89% 30.33 in 5.0 mi SW 8.1 mph - N/A   Scattered Clouds
8:55 AM 14.9 °F 3.1 °F 11.8 °F 88% 30.34 in 5.0 mi SW 9.2 mph - N/A   Clear
9:15 AM 16.0 °F 2.9 °F 12.0 °F 84% 30.35 in 5.0 mi SW 11.5 mph - N/A   Clear
9:35 AM 16.9 °F 4.1 °F 12.0 °F 81% 30.36 in 5.0 mi SW 11.5 mph - N/A   Haze
9:55 AM 17.8 °F 7.5 °F 12.2 °F 79% 30.35 in 7.0 mi SW 8.1 mph - N/A   Clear
10:15 AM 18.7 °F 8.6 °F 12.7 °F 78% 30.34 in 7.0 mi WSW 8.1 mph - N/A   Clear
10:35 AM 20.1 °F 10.3 °F 13.3 °F 75% 30.34 in 7.0 mi SW 8.1 mph - N/A   Clear
10:55 AM 21.2 °F 10.1 °F 14.2 °F 74% 30.34 in 7.0 mi SW 10.4 mph - N/A   Clear
11:15 AM 21.9 °F 11.0 °F 14.9 °F 74% 30.33 in 7.0 mi SW 10.4 mph - N/A   Clear
11:35 AM 22.6 °F 14.3 °F 15.4 °F 74% 30.31 in 7.0 mi SW 6.9 mph - N/A   Clear
11:55 AM 23.7 °F 12.6 °F 16.3 °F 73% 30.31 in 7.0 mi SW 11.5 mph - N/A   Clear
12:15 PM 24.6 °F 15.1 °F 17.2 °F 74% 30.30 in 7.0 mi SSW 9.2 mph - N/A   Clear
12:35 PM 25.3 °F 16.0 °F 17.6 °F 72% 30.29 in 7.0 mi SW 9.2 mph - N/A   Clear
12:55 PM 26.2 °F 17.1 °F 18.3 °F 72% 30.28 in 7.0 mi SW 9.2 mph - N/A   Clear
1:15 PM 26.6 °F 16.2 °F 18.5 °F 71% 30.28 in 10.0 mi SW 11.5 mph - N/A   Clear
1:35 PM 27.3 °F 17.1 °F 19.2 °F 72% 30.28 in 10.0 mi SW 11.5 mph 16.1 mph N/A   Clear
1:55 PM 27.9 °F 17.8 °F 19.8 °F 72% 30.28 in 10.0 mi SW 11.5 mph - N/A   Clear
2:15 PM 28.4 °F 19.1 °F 20.3 °F 72% 30.27 in 10.0 mi SW 10.4 mph - N/A   Clear
2:35 PM 28.8 °F 19.0 °F 20.3 °F 71% 30.27 in 10.0 mi SSW 11.5 mph - N/A   Clear
2:55 PM 28.4 °F 19.7 °F 20.7 °F 73% 30.26 in 10.0 mi South 9.2 mph - N/A   Clear
3:15 PM 26.6 °F 17.5 °F 20.3 °F 77% 30.26 in 7.0 mi South 9.2 mph - N/A   Clear
3:35 PM 26.1 °F 15.6 °F 20.3 °F 79% 30.25 in 7.0 mi South 11.5 mph - N/A   Clear
3:55 PM 25.0 °F 15.5 °F 19.6 °F 80% 30.25 in 7.0 mi South 9.2 mph - N/A   Clear
4:15 PM 24.3 °F 15.4 °F 19.6 °F 82% 30.26 in 5.0 mi South 8.1 mph - N/A   Haze
4:35 PM 23.9 °F 15.0 °F 19.4 °F 83% 30.26 in 7.0 mi South 8.1 mph - N/A   Clear
4:55 PM 24.3 °F 15.4 °F 19.8 °F 83% 30.26 in 7.0 mi SSW 8.1 mph - N/A   Scattered Clouds
5:15 PM 24.6 °F 15.8 °F 19.9 °F 82% 30.26 in 7.0 mi SSW 8.1 mph - N/A   Scattered Clouds
5:35 PM 24.8 °F 16.1 °F 20.3 °F 83% 30.26 in 7.0 mi South 8.1 mph - N/A   Scattered Clouds
5:55 PM 25.2 °F 15.7 °F 20.3 °F 82% 30.26 in 7.0 mi South 9.2 mph - N/A   Mostly Cloudy
6:15 PM 25.3 °F 16.0 °F 20.8 °F 83% 30.26 in 7.0 mi SSW 9.2 mph - N/A   Scattered Clouds
6:35 PM 25.7 °F 17.1 °F 21.2 °F 83% 30.26 in 7.0 mi SSW 8.1 mph - N/A   Scattered Clouds
6:55 PM 26.4 °F 18.0 °F 21.6 °F 82% 30.25 in 7.0 mi SSW 8.1 mph - N/A   Scattered Clouds
7:15 PM 25.7 °F 17.1 °F 21.2 °F 83% 30.24 in 7.0 mi SSW 8.1 mph - N/A   Scattered Clouds
7:35 PM 25.5 °F 16.2 °F 21.2 °F 84% 30.21 in 7.0 mi South 9.2 mph - N/A   Scattered Clouds
7:55 PM 25.5 °F 15.5 °F 21.0 °F 83% 30.21 in 10.0 mi SSW 10.4 mph - N/A   Scattered Clouds
8:15 PM 25.5 °F 15.5 °F 20.7 °F 82% 30.19 in 10.0 mi South 10.4 mph 16.1 mph N/A   Clear
8:35 PM 25.5 °F 17.8 °F 20.3 °F 81% 30.20 in 10.0 mi SSW 6.9 mph - N/A   Scattered Clouds
8:55 PM 25.5 °F 17.8 °F 20.3 °F 81% 30.20 in 10.0 mi SSW 6.9 mph - N/A   Scattered Clouds
9:15 PM 25.7 °F 17.1 °F 20.3 °F 80% 30.20 in 10.0 mi SSW 8.1 mph - N/A   Clear
9:55 PM 25.7 °F 17.1 °F 19.8 °F 78% 30.19 in 10.0 mi SSW 8.1 mph - N/A   Clear
10:15 PM 25.7 °F 15.7 °F 19.4 °F 77% 30.19 in 10.0 mi SSW 10.4 mph - N/A   Scattered Clouds
10:35 PM 25.7 °F 15.1 °F 19.4 °F 77% 30.17 in 10.0 mi SSW 11.5 mph - N/A   Clear
10:55 PM 25.7 °F 16.4 °F 19.4 °F 77% 30.17 in 10.0 mi SSW 9.2 mph - N/A   Clear
11:15 PM 25.7 °F 15.7 °F 19.6 °F 78% 30.17 in 10.0 mi SSW 10.4 mph - N/A   Clear
11:35 PM 25.5 °F 16.2 °F 19.8 °F 79% 30.15 in 10.0 mi SSW 9.2 mph - N/A   Clear
11:55 PM 25.2 °F 15.7 °F 19.4 °F 79% 30.14 in 10.0 mi SSW 9.2 mph - N/A   Scattered Clouds